sat.trackr.live / text

‹ back to catalog

STARLINK-5918

NORAD 55939 · 2023-037AB

PAYLOAD ACTIVE UNKNOWN

§ Identity

Operator
Country
US
Launch date
2023-03-17
Launch site
AFWTR
Launch vehicle
Mass (kg)
RCS (m²)

Purposes: comms

External: N2YO · Heavens-Above · Gunter

§ Orbital elements

Epoch: 2026-09-20T22:00:03.000096Z

Period
95.75 min
Inclination
70.0005°
Eccentricity
0.0004020
Mean motion
15.03963414 rev/d
Perigee alt
551.9 km
Apogee alt
557.5 km
Semi-major
6,932.8 km
B*
2.2705e-3
RAAN
152.1251°
Arg perigee
289.2470°
Mean anomaly
142.4021°
Rev number
572

§ Raw data

STARLINK-59181 55939U 23037AB  26263.91670139  .00031449  00000+0  22705-2 0  99992 55939  70.0005 152.1251 0004020 289.2470 142.4021 15.03963414  5724

JSON: /api/v1/satellites/55939 · /tle

For live sub-satellite position, see the globe view (requires WebGL).

§ Visibility from observer

Set your observer location to see the next 7 days of passes ≥ 10°. The values pass through the URL so the page stays shareable.

No JS? Fill the form by hand. The geolocation button needs JavaScript.